Torna al catalogo

KUIPER-00245

AttivoComunicazioniLEO
NORAD 67150·PAYLOAD·🇺🇸 United States

Lanciato Dec 15, 2025 da Cape Canaveral Space Force Station

Loading…

Prossimi Passaggi (prossime 24 ore)

TLE

AggiornatoSource: CelesTrak SupGP

Epoca: Sep 14, 2026, 17:30 UTC

1 67150C 25301T   26257.72958333  .00005264  00000+0  68937-3 0  2571
2 67150  51.9030 327.2432 0000439  90.5546 120.9997 14.79910495    14

Traccia KUIPER-00245 in tempo reale con AllMySat

Download on the App Store